QPF
0.01 0.00 0.01 0.01 0.01 0.00 0.01 0.01 0.02 0.01 0.00 0.00 0.00 0.00 0.00 0.00 0.00 0.00 0.00 0.01 0.01 0.02 0.02 0.03 0.03 0.05 0.06 0.06 0.04 0.03 0.05 0.09 0.15 0.22 0.28 0.32 0.27 0.22 0.19 0.15 0.10 0.11 0.15 0.17
0.02 0.01 0.01 0.01 0.01 0.01 0.01 0.01 0.01 0.01 0.00 0.00 0.00 0.00 0.00 0.00 0.00 0.00 0.00 0.01 0.01 0.01 0.02 0.02 0.02 0.03 0.04 0.05 0.04 0.04 0.05 0.07 0.11 0.16 0.21 0.31 0.32 0.26 0.21 0.15 0.10 0.10 0.14 0.16
0.05 0.01 0.02 0.02 0.01 0.01 0.01 0.01 0.01 0.01 0.00 0.00 0.00 0.00 0.00 0.00 0.00 0.00 0.00 0.00 0.01 0.01 0.01 0.02 0.02 0.02 0.03 0.05 0.05 0.05 0.04 0.05 0.09 0.11 0.15 0.22 0.31 0.31 0.25 0.18 0.12 0.10 0.10 0.12
0.08 0.04 0.04 0.01 0.01 0.01 0.01 0.02 0.02 0.01 0.01 0.00 0.00 0.00 0.00 0.00 0.00 0.00 0.00 0.00 0.01 0.01 0.01 0.01 0.01 0.02 0.03 0.04 0.05 0.05 0.04 0.04 0.06 0.07 0.10 0.15 0.26 0.31 0.28 0.22 0.16 0.12 0.10 0.09
0.11 0.07 0.02 0.00 0.01 0.01 0.01 0.02 0.02 0.01 0.01 0.01 0.00 0.00 0.00 0.00 0.00 0.00 0.00 0.00 0.01 0.01 0.01 0.01 0.01 0.02 0.03 0.03 0.05 0.04 0.03 0.04 0.04 0.04 0.06 0.10 0.18 0.28 0.26 0.25 0.19 0.15 0.12 0.09
0.11 0.08 0.03 0.01 0.00 0.00 0.00 0.01 0.01 0.01 0.01 0.01 0.01 0.00 0.00 0.00 0.00 0.00 0.00 0.00 0.01 0.01 0.01 0.01 0.01 0.02 0.03 0.03 0.03 0.03 0.03 0.03 0.02 0.02 0.03 0.06 0.11 0.19 0.24 0.23 0.20 0.17 0.15 0.12
0.06 0.06 0.02 0.01 0.00 0.00 0.01 0.01 0.01 0.02 0.02 0.02 0.01 0.01 0.01 0.01 0.01 0.00 0.00 0.00 0.01 0.01 0.01 0.01 0.01 0.03 0.04 0.03 0.02 0.02 0.02 0.03 0.02 0.01 0.02 0.04 0.07 0.12 0.21 0.23 0.21 0.18 0.15 0.13
0.03 0.06 0.03 0.01 0.01 0.01 0.02 0.02 0.02 0.02 0.02 0.02 0.01 0.01 0.01 0.01 0.00 0.00 0.00 0.00 0.01 0.01 0.01 0.01 0.01 0.04 0.05 0.03 0.03 0.03 0.02 0.03 0.02 0.01 0.02 0.03 0.05 0.09 0.15 0.20 0.21 0.16 0.15 0.14
0.01 0.01 0.00 0.00 0.01 0.02 0.02 0.02 0.02 0.02 0.02 0.01 0.01 0.01 0.01 0.00 0.00 0.00 0.00 0.01 0.01 0.01 0.01 0.01 0.02 0.04 0.05 0.04 0.04 0.03 0.02 0.02 0.02 0.02 0.02 0.03 0.04 0.07 0.12 0.14 0.18 0.15 0.12 0.13
0.01 0.01 0.00 0.00 0.01 0.02 0.02 0.02 0.03 0.03 0.02 0.02 0.02 0.01 0.01 0.00 0.00 0.00 0.00 0.01 0.01 0.01 0.01 0.01 0.03 0.04 0.04 0.05 0.05 0.04 0.03 0.03 0.03 0.03 0.03 0.03 0.04 0.06 0.10 0.10 0.12 0.12 0.09 0.10
0.01 0.00 0.00 0.00 0.00 0.01 0.01 0.02 0.02 0.03 0.02 0.02 0.01 0.01 0.00 0.00 0.00 0.00 0.00 0.01 0.01 0.01 0.01 0.02 0.03 0.04 0.04 0.05 0.05 0.04 0.03 0.03 0.03 0.04 0.04 0.03 0.05 0.06 0.08 0.08 0.08 0.09 0.07 0.07
0.01 0.01 0.01 0.01 0.00 0.00 0.00 0.01 0.01 0.02 0.01 0.01 0.01 0.00 0.00 0.00 0.00 0.00 0.00 0.01 0.01 0.01 0.01 0.02 0.03 0.03 0.04 0.04 0.04 0.04 0.04 0.03 0.03 0.04 0.05 0.05 0.05 0.07 0.09 0.09 0.07 0.07 0.06 0.07
0.01 0.01 0.01 0.00 0.00 0.00 0.00 0.00 0.00 0.01 0.01 0.01 0.00 0.00 0.00 0.00 0.00 0.00 0.00 0.00 0.01 0.01 0.01 0.02 0.02 0.03 0.04 0.04 0.03 0.04 0.04 0.03 0.03 0.04 0.05 0.06 0.06 0.06 0.08 0.09 0.09 0.09 0.09 0.09
0.00 0.00 0.00 0.00 0.00 0.00 0.00 0.00 0.00 0.00 0.01 0.00 0.00 0.00 0.00 0.00 0.00 0.00 0.00 0.01 0.01 0.01 0.01 0.02 0.02 0.02 0.03 0.03 0.03 0.03 0.04 0.04 0.03 0.04 0.05 0.06 0.07 0.06 0.07 0.07 0.08 0.10 0.13 0.14
0.00 0.00 0.00 0.00 0.00 0.00 0.00 0.00 0.00 0.00 0.00 0.00 0.00 0.00 0.00 0.00 0.00 0.00 0.00 0.01 0.01 0.01 0.01 0.01 0.02 0.02 0.02 0.02 0.03 0.03 0.04 0.04 0.03 0.04 0.05 0.06 0.06 0.07 0.08 0.08 0.06 0.08 0.12 0.16
0.00 0.00 0.00 0.00 0.00 0.00 0.00 0.00 0.00 0.00 0.00 0.00 0.00 0.00 0.00 0.00 0.00 0.00 0.01 0.01 0.01 0.01 0.01 0.01 0.01 0.01 0.02 0.02 0.02 0.02 0.03 0.03 0.04 0.04 0.05 0.06 0.07 0.07 0.08 0.08 0.07 0.07 0.10 0.12
0.00 0.00 0.00 0.00 0.00 0.00 0.00 0.00 0.00 0.00 0.00 0.00 0.00 0.00 0.00 0.00 0.00 0.01 0.01 0.01 0.01 0.01 0.01 0.01 0.01 0.01 0.01 0.01 0.02 0.02 0.02 0.03 0.04 0.04 0.05 0.06 0.07 0.08 0.07 0.08 0.08 0.07 0.09 0.10
0.00 0.00 0.00 0.00 0.00 0.00 0.00 0.00 0.00 0.00 0.00 0.00 0.00 0.00 0.00 0.01 0.01 0.01 0.01 0.01 0.01 0.01 0.01 0.02 0.01 0.01 0.01 0.01 0.01 0.02 0.02 0.02 0.03 0.04 0.05 0.06 0.07 0.08 0.08 0.08 0.08 0.08 0.08 0.10
0.00 0.00 0.00 0.00 0.00 0.00 0.00 0.00 0.00 0.00 0.00 0.00 0.00 0.00 0.00 0.00 0.01 0.01 0.01 0.01 0.02 0.02 0.01 0.02 0.02 0.02 0.01 0.01 0.02 0.02 0.02 0.03 0.03 0.04 0.06 0.07 0.08 0.09 0.09 0.09 0.08 0.08 0.08 0.09
0.00 0.00 0.00 0.00 0.00 0.00 0.00 0.00 0.00 0.00 0.00 0.00 0.01 0.01 0.01 0.01 0.01 0.01 0.01 0.01 0.02 0.01 0.01 0.02 0.03 0.03 0.02 0.02 0.02 0.02 0.03 0.03 0.04 0.05 0.07 0.08 0.08 0.08 0.09 0.09 0.09 0.08 0.08 0.07
0.00 0.00 0.00 0.00 0.00 0.00 0.00 0.01 0.01 0.00 0.00 0.00 0.01 0.01 0.01 0.01 0.01 0.02 0.02 0.02 0.02 0.02 0.02 0.02 0.04 0.04 0.02 0.02 0.03 0.03 0.03 0.04 0.04 0.05 0.06 0.07 0.07 0.08 0.10 0.11 0.10 0.08 0.08 0.07
0.00 0.00 0.00 0.00 0.00 0.00 0.00 0.00 0.01 0.01 0.01 0.01 0.01 0.01 0.02 0.01 0.01 0.02 0.02 0.03 0.03 0.03 0.03 0.03 0.04 0.05 0.04 0.04 0.04 0.04 0.04 0.04 0.05 0.05 0.06 0.07 0.08 0.09 0.10 0.10 0.10 0.10 0.09 0.07
0.00 0.00 0.00 0.00 0.01 0.01 0.00 0.00 0.01 0.01 0.01 0.01 0.02 0.02 0.02 0.02 0.02 0.03 0.03 0.04 0.05 0.05 0.05 0.04 0.06 0.07 0.06 0.06 0.06 0.05 0.05 0.05 0.05 0.06 0.08 0.08 0.07 0.08 0.09 0.09 0.10 0.10 0.09 0.08
0.00 0.00 0.00 0.00 0.00 0.00 0.00 0.00 0.01 0.01 0.01 0.02 0.02 0.02 0.03 0.04 0.03 0.03 0.05 0.06 0.07 0.06 0.06 0.06 0.06 0.07 0.07 0.08 0.08 0.07 0.07 0.06 0.07 0.09 0.08 0.07 0.07 0.07 0.09 0.10 0.11 0.11 0.09 0.08
0.00 0.00 0.00 0.00 0.00 0.01 0.01 0.01 0.01 0.01 0.02 0.02 0.02 0.03 0.03 0.04 0.04 0.04 0.06 0.07 0.07 0.07 0.06 0.06 0.06 0.07 0.09 0.10 0.10 0.09 0.08 0.08 0.09 0.09 0.07 0.07 0.07 0.09 0.11 0.11 0.11 0.10 0.09 0.08
0.01 0.01 0.01 0.01 0.01 0.01 0.01 0.01 0.02 0.02 0.02 0.03 0.02 0.03 0.03 0.03 0.04 0.05 0.07 0.06 0.06 0.07 0.07 0.07 0.07 0.08 0.10 0.11 0.11 0.10 0.09 0.09 0.10 0.09 0.07 0.07 0.08 0.10 0.11 0.10 0.09 0.09 0.09 0.08
0.00 0.00 0.00 0.00 0.01 0.01 0.01 0.02 0.02 0.02 0.03 0.04 0.03 0.03 0.04 0.04 0.05 0.06 0.06 0.06 0.07 0.07 0.07 0.07 0.08 0.09 0.10 0.10 0.11 0.11 0.10 0.09 0.09 0.08 0.08 0.09 0.09 0.09 0.09 0.08 0.09 0.10 0.09 0.09
MSLP
1012.67 1012.46 1012.27 1012.06 1011.78 1011.39 1010.86 1010.18 1009.37 1008.47 1007.56 1006.68 1005.93 1005.35 1004.98 1004.82 1004.85 1005.02 1005.27 1005.54 1005.76 1005.92 1005.98 1005.96 1005.88 1005.76 1005.65 1005.57 1005.53 1005.52 1005.55 1005.56 1005.55 1005.48 1005.31 1005.04 1004.67 1004.19 1003.63 1003.00 1002.34 1001.68 1001.06 1000.52
1010.92 1010.55 1010.17 1009.78 1009.35 1008.86 1008.30 1007.68 1007.03 1006.36 1005.73 1005.19 1004.76 1004.48 1004.35 1004.37 1004.50 1004.71 1004.95 1005.18 1005.37 1005.49 1005.55 1005.54 1005.50 1005.44 1005.38 1005.34 1005.31 1005.29 1005.27 1005.22 1005.13 1004.98 1004.76 1004.45 1004.06 1003.59 1003.05 1002.46 1001.84 1001.20 1000.58 1000.02
1009.34 1008.81 1008.28 1007.75 1007.21 1006.67 1006.13 1005.60 1005.10 1004.66 1004.29 1004.03 1003.87 1003.83 1003.90 1004.04 1004.25 1004.47 1004.70 1004.89 1005.04 1005.13 1005.18 1005.19 1005.18 1005.15 1005.12 1005.08 1005.03 1004.97 1004.88 1004.76 1004.60 1004.38 1004.10 1003.77 1003.38 1002.95 1002.45 1001.91 1001.33 1000.72 1000.11 999.52
1008.08 1007.41 1006.76 1006.14 1005.54 1004.98 1004.48 1004.04 1003.69 1003.43 1003.28 1003.23 1003.28 1003.41 1003.60 1003.83 1004.07 1004.29 1004.49 1004.64 1004.76 1004.83 1004.86 1004.87 1004.86 1004.84 1004.80 1004.73 1004.64 1004.52 1004.36 1004.16 1003.92 1003.64 1003.34 1003.01 1002.65 1002.25 1001.82 1001.33 1000.80 1000.22 999.61 998.99
1007.19 1006.42 1005.67 1004.98 1004.35 1003.80 1003.34 1003.00 1002.77 1002.65 1002.65 1002.75 1002.93 1003.16 1003.42 1003.69 1003.93 1004.14 1004.31 1004.43 1004.51 1004.55 1004.56 1004.56 1004.53 1004.48 1004.40 1004.28 1004.12 1003.92 1003.68 1003.41 1003.11 1002.80 1002.49 1002.18 1001.85 1001.52 1001.14 1000.71 1000.22 999.66 999.05 998.41
1006.59 1005.74 1004.94 1004.21 1003.57 1003.05 1002.65 1002.38 1002.24 1002.23 1002.32 1002.51 1002.76 1003.04 1003.32 1003.58 1003.81 1004.00 1004.13 1004.22 1004.26 1004.27 1004.26 1004.22 1004.14 1004.04 1003.89 1003.70 1003.46 1003.18 1002.87 1002.54 1002.21 1001.89 1001.59 1001.31 1001.04 1000.75 1000.43 1000.05 999.59 999.04 998.42 997.75
1006.14 1005.24 1004.42 1003.70 1003.09 1002.61 1002.27 1002.07 1002.00 1002.05 1002.20 1002.42 1002.69 1002.98 1003.25 1003.50 1003.69 1003.84 1003.94 1003.99 1004.00 1003.97 1003.92 1003.82 1003.69 1003.51 1003.29 1003.01 1002.69 1002.34 1001.98 1001.61 1001.27 1000.96 1000.69 1000.45 1000.23 999.99 999.71 999.35 998.89 998.34 997.70 997.01
1005.67 1004.78 1003.99 1003.31 1002.76 1002.35 1002.08 1001.94 1001.93 1002.02 1002.20 1002.43 1002.69 1002.96 1003.20 1003.40 1003.57 1003.68 1003.74 1003.75 1003.71 1003.64 1003.52 1003.36 1003.15 1002.89 1002.58 1002.23 1001.85 1001.44 1001.05 1000.68 1000.35 1000.07 999.84 999.64 999.46 999.24 998.97 998.61 998.13 997.56 996.89 996.18
1005.07 1004.26 1003.54 1002.95 1002.50 1002.17 1001.99 1001.92 1001.96 1002.08 1002.26 1002.49 1002.72 1002.95 1003.15 1003.32 1003.43 1003.49 1003.51 1003.47 1003.38 1003.24 1003.06 1002.82 1002.52 1002.18 1001.80 1001.38 1000.95 1000.52 1000.12 999.77 999.48 999.24 999.06 998.90 998.73 998.52 998.23 997.84 997.32 996.70 996.00 995.29
1004.35 1003.66 1003.07 1002.61 1002.28 1002.07 1001.97 1001.97 1002.06 1002.20 1002.39 1002.59 1002.79 1002.97 1003.12 1003.23 1003.29 1003.29 1003.25 1003.15 1002.99 1002.78 1002.51 1002.18 1001.80 1001.39 1000.94 1000.48 1000.02 999.60 999.23 998.92 998.68 998.50 998.35 998.22 998.05 997.82 997.49 997.04 996.47 995.80 995.07 994.36
1003.58 1003.06 1002.64 1002.34 1002.15 1002.06 1002.06 1002.13 1002.25 1002.41 1002.58 1002.75 1002.90 1003.03 1003.11 1003.15 1003.14 1003.07 1002.95 1002.76 1002.52 1002.22 1001.86 1001.45 1000.99 1000.51 1000.01 999.53 999.08 998.68 998.36 998.11 997.93 997.80 997.69 997.57 997.39 997.12 996.73 996.21 995.58 994.87 994.12 993.42
1002.95 1002.63 1002.40 1002.25 1002.20 1002.23 1002.31 1002.43 1002.57 1002.72 1002.86 1002.98 1003.07 1003.12 1003.12 1003.07 1002.96 1002.81 1002.59 1002.31 1001.97 1001.56 1001.11 1000.61 1000.09 999.55 999.02 998.54 998.11 997.76 997.50 997.31 997.19 997.10 997.02 996.90 996.69 996.37 995.92 995.35 994.66 993.92 993.18 992.53
1002.63 1002.50 1002.44 1002.45 1002.51 1002.62 1002.76 1002.90 1003.03 1003.15 1003.23 1003.27 1003.27 1003.22 1003.12 1002.97 1002.76 1002.49 1002.16 1001.77 1001.32 1000.82 1000.27 999.70 999.11 998.54 998.00 997.52 997.13 996.83 996.61 996.48 996.41 996.36 996.29 996.15 995.91 995.55 995.05 994.43 993.73 992.99 992.29 991.71
1002.72 1002.76 1002.84 1002.96 1003.11 1003.26 1003.40 1003.52 1003.61 1003.66 1003.65 1003.60 1003.49 1003.32 1003.09 1002.82 1002.48 1002.10 1001.65 1001.15 1000.59 1000.00 999.37 998.73 998.10 997.50 996.96 996.50 996.13 995.87 995.70 995.61 995.56 995.52 995.45 995.29 995.03 994.63 994.11 993.48 992.79 992.09 991.47 991.01
1003.26 1003.42 1003.59 1003.77 1003.93 1004.08 1004.19 1004.25 1004.25 1004.20 1004.08 1003.90 1003.65 1003.35 1002.99 1002.58 1002.12 1001.61 1001.05 1000.44 999.79 999.12 998.43 997.74 997.08 996.47 995.94 995.49 995.16 994.92 994.77 994.68 994.64 994.59 994.49 994.31 994.02 993.61 993.09 992.49 991.86 991.26 990.76 990.45
1004.16 1004.37 1004.57 1004.74 1004.88 1004.97 1005.00 1004.96 1004.85 1004.67 1004.41 1004.09 1003.71 1003.26 1002.77 1002.23 1001.64 1001.01 1000.35 999.65 998.94 998.20 997.48 996.77 996.10 995.50 994.97 994.54 994.21 993.98 993.82 993.72 993.65 993.56 993.43 993.22 992.92 992.52 992.04 991.51 990.99 990.52 990.19 990.06
1005.23 1005.44 1005.61 1005.73 1005.80 1005.79 1005.71 1005.55 1005.31 1004.98 1004.59 1004.12 1003.59 1003.00 1002.38 1001.71 1001.01 1000.29 999.55 998.79 998.03 997.27 996.53 995.83 995.18 994.59 994.08 993.66 993.33 993.08 992.89 992.75 992.62 992.48 992.31 992.07 991.76 991.40 990.99 990.58 990.20 989.92 989.79 989.86
1006.28 1006.43 1006.53 1006.56 1006.53 1006.40 1006.20 1005.91 1005.52 1005.06 1004.52 1003.92 1003.25 1002.54 1001.79 1001.01 1000.22 999.42 998.62 997.83 997.05 996.30 995.59 994.92 994.30 993.75 993.27 992.85 992.51 992.23 992.00 991.80 991.61 991.41 991.19 990.93 990.64 990.33 990.03 989.76 989.57 989.49 989.59 989.88
1007.13 1007.19 1007.19 1007.11 1006.96 1006.72 1006.39 1005.97 1005.46 1004.87 1004.20 1003.46 1002.67 1001.84 1000.98 1000.11 999.24 998.38 997.54 996.74 995.97 995.26 994.59 993.98 993.42 992.92 992.48 992.08 991.74 991.44 991.16 990.90 990.65 990.39 990.14 989.88 989.63 989.40 989.22 989.12 989.13 989.28 989.61 990.13
1007.67 1007.63 1007.52 1007.33 1007.07 1006.72 1006.28 1005.74 1005.12 1004.41 1003.62 1002.77 1001.86 1000.92 999.96 999.00 998.06 997.15 996.29 995.49 994.75 994.08 993.48 992.95 992.47 992.04 991.65 991.30 990.97 990.66 990.36 990.06 989.77 989.49 989.22 988.98 988.79 988.67 988.64 988.72 988.94 989.32 989.88 990.62
1007.91 1007.77 1007.56 1007.28 1006.91 1006.47 1005.93 1005.30 1004.58 1003.76 1002.87 1001.90 1000.88 999.83 998.76 997.71 996.70 995.74 994.85 994.06 993.35 992.74 992.21 991.76 991.38 991.04 990.73 990.44 990.16 989.87 989.58 989.28 988.99 988.72 988.48 988.29 988.19 988.19 988.32 988.59 989.02 989.62 990.39 991.32
1007.93 1007.69 1007.40 1007.03 1006.59 1006.07 1005.45 1004.73 1003.92 1003.01 1002.00 1000.92 999.79 998.62 997.44 996.29 995.19 994.17 993.25 992.44 991.76 991.20 990.75 990.39 990.11 989.88 989.67 989.48 989.27 989.05 988.82 988.57 988.32 988.10 987.93 987.84 987.86 988.00 988.29 988.75 989.38 990.18 991.14 992.24
1007.85 1007.54 1007.17 1006.74 1006.23 1005.64 1004.95 1004.15 1003.25 1002.24 1001.13 999.93 998.67 997.37 996.07 994.80 993.60 992.50 991.53 990.71 990.03 989.51 989.13 988.86 988.68 988.56 988.48 988.40 988.32 988.21 988.07 987.92 987.78 987.67 987.61 987.65 987.80 988.10 988.56 989.20 990.01 990.97 992.09 993.33
1007.78 1007.41 1006.98 1006.50 1005.93 1005.27 1004.52 1003.64 1002.65 1001.54 1000.32 998.99 997.60 996.17 994.74 993.34 992.04 990.85 989.81 988.95 988.27 987.77 987.44 987.25 987.17 987.17 987.22 987.29 987.34 987.38 987.39 987.39 987.39 987.42 987.52 987.71 988.03 988.49 989.12 989.91 990.87 991.98 993.22 994.55
1007.82 1007.39 1006.92 1006.38 1005.76 1005.04 1004.21 1003.26 1002.18 1000.97 999.63 998.19 996.67 995.11 993.54 992.03 990.61 989.33 988.22 987.31 986.61 986.12 985.82 985.70 985.72 985.84 986.02 986.23 986.45 986.65 986.84 987.01 987.19 987.40 987.67 988.03 988.51 989.14 989.92 990.85 991.93 993.14 994.46 995.85
1007.97 1007.50 1006.98 1006.39 1005.71 1004.93 1004.04 1003.01 1001.85 1000.54 999.11 997.56 995.93 994.26 992.59 990.98 989.46 988.10 986.92 985.96 985.24 984.75 984.48 984.41 984.51 984.73 985.03 985.39 985.76 986.13 986.50 986.86 987.22 987.62 988.07 988.60 989.24 990.01 990.92 991.96 993.13 994.41 995.77 997.19
1008.21 1007.70 1007.13 1006.49 1005.76 1004.92 1003.97 1002.88 1001.64 1000.27 998.76 997.14 995.44 993.70 991.96 990.27 988.70 987.28 986.06 985.07 984.33 983.84 983.59 983.56 983.72 984.01 984.42 984.90 985.41 985.94 986.47 987.00 987.54 988.10 988.72 989.40 990.18 991.07 992.07 993.19 994.41 995.72 997.10 998.52
Thickness
5441 5446 5437 5433 5434 5427 5417 5417 5412 5430 5434 5447 5446 5439 5436 5434 5433 5434 5434 5435 5436 5437 5438 5441 5444 5448 5453 5457 5462 5467 5472 5479 5487 5495 5503 5511 5520 5529 5538 5546 5554 5561 5567 5572
5432 5438 5430 5430 5439 5435 5430 5426 5422 5424 5432 5444 5438 5432 5429 5427 5426 5427 5427 5429 5431 5432 5434 5436 5439 5443 5447 5452 5456 5461 5466 5474 5481 5488 5496 5505 5514 5523 5532 5540 5547 5555 5561 5567
5422 5424 5415 5424 5443 5438 5431 5429 5423 5420 5432 5434 5427 5426 5425 5423 5421 5420 5421 5422 5423 5424 5427 5430 5433 5437 5441 5446 5451 5456 5462 5469 5477 5484 5491 5500 5509 5517 5527 5536 5543 5550 5557 5563
5407 5400 5404 5444 5442 5437 5431 5433 5428 5425 5425 5422 5420 5419 5418 5416 5412 5412 5414 5415 5417 5418 5421 5424 5427 5431 5436 5441 5445 5451 5458 5465 5472 5479 5487 5495 5503 5512 5522 5531 5538 5545 5553 5560
5397 5392 5405 5428 5432 5425 5417 5420 5425 5419 5417 5414 5412 5407 5408 5410 5406 5405 5406 5408 5409 5411 5414 5417 5421 5425 5430 5435 5440 5446 5453 5460 5467 5475 5482 5489 5497 5505 5515 5525 5534 5541 5548 5554
5393 5388 5396 5424 5426 5422 5413 5405 5417 5411 5406 5403 5398 5388 5396 5402 5399 5399 5400 5401 5403 5405 5406 5410 5414 5418 5423 5429 5434 5441 5448 5455 5461 5468 5476 5483 5491 5499 5508 5518 5527 5536 5542 5548
5391 5386 5398 5416 5414 5410 5393 5398 5407 5402 5397 5392 5386 5385 5389 5390 5391 5392 5393 5394 5395 5397 5398 5401 5406 5410 5416 5422 5427 5434 5442 5449 5455 5461 5469 5478 5486 5494 5503 5512 5521 5529 5537 5543
5380 5379 5395 5411 5400 5396 5397 5398 5395 5392 5388 5383 5382 5381 5380 5380 5382 5383 5384 5386 5387 5388 5391 5394 5398 5402 5408 5415 5421 5428 5434 5442 5448 5455 5463 5472 5480 5488 5497 5506 5513 5522 5530 5536
5388 5400 5406 5401 5398 5397 5392 5387 5385 5382 5379 5375 5373 5372 5372 5372 5373 5374 5376 5377 5379 5380 5383 5387 5390 5394 5400 5408 5414 5420 5427 5434 5441 5448 5456 5465 5474 5483 5491 5499 5507 5516 5524 5530
5377 5388 5392 5391 5388 5385 5381 5377 5376 5374 5371 5367 5364 5364 5363 5363 5364 5365 5367 5369 5371 5373 5375 5380 5383 5387 5393 5400 5406 5412 5419 5427 5433 5441 5449 5458 5468 5478 5486 5494 5501 5510 5517 5524
5374 5381 5380 5382 5380 5377 5374 5370 5367 5364 5362 5359 5357 5356 5355 5354 5355 5357 5359 5361 5363 5365 5368 5372 5376 5381 5386 5391 5397 5403 5411 5419 5427 5435 5443 5452 5461 5471 5481 5490 5498 5506 5513 5520
5373 5376 5370 5372 5373 5369 5365 5362 5359 5355 5354 5352 5349 5348 5347 5347 5348 5349 5351 5353 5355 5358 5361 5366 5369 5374 5379 5384 5389 5395 5403 5412 5420 5428 5437 5446 5455 5465 5475 5484 5493 5501 5509 5515
5372 5371 5365 5364 5362 5358 5354 5353 5350 5347 5345 5343 5342 5340 5340 5340 5341 5341 5343 5345 5347 5351 5354 5358 5363 5368 5372 5377 5382 5389 5396 5405 5413 5422 5430 5439 5448 5458 5468 5477 5486 5494 5502 5508
5361 5357 5353 5354 5350 5348 5344 5343 5341 5338 5336 5335 5334 5333 5333 5333 5333 5334 5336 5338 5340 5343 5347 5351 5356 5361 5365 5370 5376 5383 5390 5398 5407 5415 5424 5432 5441 5451 5462 5471 5478 5485 5493 5500
5347 5344 5343 5342 5339 5336 5334 5331 5329 5328 5327 5327 5325 5324 5324 5324 5326 5327 5329 5330 5332 5335 5339 5344 5348 5354 5358 5363 5370 5376 5384 5392 5401 5410 5418 5427 5435 5445 5455 5463 5470 5477 5484 5490
5337 5334 5331 5329 5327 5325 5322 5320 5319 5319 5318 5317 5316 5316 5316 5316 5318 5320 5321 5322 5324 5328 5332 5336 5342 5347 5351 5356 5363 5371 5378 5387 5396 5404 5413 5422 5430 5438 5447 5456 5463 5471 5477 5483
5324 5322 5319 5317 5315 5314 5312 5310 5310 5309 5308 5307 5307 5308 5308 5309 5310 5312 5314 5316 5318 5322 5326 5331 5337 5342 5346 5351 5357 5364 5372 5381 5391 5400 5408 5416 5424 5432 5441 5449 5457 5464 5471 5477
5312 5311 5309 5307 5304 5303 5303 5302 5301 5300 5300 5300 5300 5300 5300 5301 5303 5305 5307 5310 5313 5318 5323 5327 5332 5337 5342 5347 5353 5360 5368 5377 5386 5394 5403 5411 5418 5426 5435 5444 5452 5459 5465 5470
5303 5301 5300 5299 5296 5295 5294 5294 5293 5293 5293 5293 5293 5293 5294 5295 5297 5300 5302 5305 5309 5314 5320 5324 5329 5334 5339 5345 5351 5358 5365 5373 5382 5390 5399 5408 5415 5422 5430 5439 5447 5454 5460 5465
5294 5293 5292 5290 5289 5288 5287 5287 5287 5286 5286 5287 5287 5289 5290 5292 5294 5296 5299 5302 5307 5311 5316 5321 5326 5332 5338 5343 5350 5356 5363 5370 5379 5387 5395 5402 5410 5418 5426 5434 5441 5448 5454 5459
5284 5284 5284 5282 5282 5281 5281 5281 5280 5281 5283 5283 5284 5285 5287 5289 5291 5293 5297 5302 5309 5311 5315 5321 5326 5331 5336 5342 5349 5355 5362 5369 5377 5385 5392 5399 5407 5415 5422 5430 5436 5443 5449 5454
5275 5275 5275 5275 5275 5275 5276 5276 5276 5278 5280 5281 5283 5284 5285 5288 5291 5294 5297 5301 5308 5312 5316 5321 5326 5331 5337 5343 5349 5355 5362 5369 5376 5383 5390 5397 5405 5412 5419 5426 5433 5439 5445 5450
5267 5268 5268 5269 5269 5270 5271 5272 5274 5276 5278 5280 5282 5284 5285 5288 5291 5293 5299 5305 5308 5313 5317 5322 5328 5334 5339 5344 5350 5356 5363 5370 5377 5383 5390 5396 5403 5410 5417 5423 5429 5435 5440 5445
5262 5262 5263 5263 5264 5265 5268 5270 5272 5275 5276 5279 5281 5283 5285 5289 5293 5296 5300 5306 5311 5316 5320 5325 5331 5337 5342 5347 5353 5359 5365 5371 5377 5383 5389 5396 5402 5408 5414 5419 5425 5430 5435 5439
5256 5257 5258 5259 5261 5263 5266 5268 5270 5272 5275 5278 5281 5283 5286 5289 5292 5297 5301 5306 5312 5318 5323 5329 5335 5340 5344 5349 5355 5361 5367 5373 5379 5384 5390 5395 5400 5406 5411 5416 5421 5426 5430 5435
5251 5252 5253 5255 5257 5260 5262 5264 5267 5270 5273 5277 5281 5284 5287 5291 5294 5298 5303 5308 5314 5320 5325 5331 5336 5342 5346 5352 5357 5363 5369 5374 5379 5384 5390 5395 5399 5404 5408 5413 5417 5422 5426 5431
5246 5248 5250 5253 5257 5258 5260 5262 5264 5267 5271 5274 5279 5283 5287 5291 5296 5301 5306 5311 5316 5322 5327 5332 5337 5343 5348 5353 5358 5363 5369 5373 5378 5383 5389 5394 5398 5402 5406 5410 5414 5418 5422 5426